This demonstration page uses our WeatherBlox Daily Observations layout. Learn more.

Left ArrowRight Arrow

47.50024, -111.30081

Hourly Observations for January 25, 2018

Temp ( °F °C ) Dew Point ( °F °C ) Humidity (%) Winds ( mph kmh ) Pressure ( in mb ) Visibility ( mi km ) Precip ( " mm )
12:53 am 00:53 Clear 38 3.3 18 -7.8 44 44 SSW 9 15 29.67 1005 10 16 0.00 0.00
1:53 am 01:53 Clear 35 1.7 19 -7.2 52 52 SSW 9 15 29.66 1004 10 16 0.00 0.00
2:53 am 02:53 Clear 34 1.1 18 -7.8 52 52 SSW 9 15 29.65 1004 10 16 0.00 0.00
3:53 am 03:53 Clear 35 1.7 19 -7.2 52 52 SSW 12 19 29.62 1003 10 16 0.00 0.00
4:53 am 04:53 Clear 39 3.9 18 -7.8 43 43 SW 10 17 29.61 1003 10 16 0.00 0.00
5:53 am 05:53 Clear 44 6.7 18 -7.8 35 35 SSW 21 33 29.58 1002 10 16 0.00 0.00
6:53 am 06:53 Clear 41 5 17 -8.3 38 38 SSW 15 24 29.57 1001 10 16 0.00 0.00
7:53 am 07:53 Clear 42 5.6 16 -8.9 35 35 SSW 20 31 29.55 1001 10 16 0.00 0.00
8:53 am 08:53 Sunny 42 5.6 16 -8.9 35 35 SSW 20 31 29.56 1001 10 16 0.00 0.00
9:53 am 09:53 Sunny 48 8.9 17 -8.3 29 29 SSW 26 43 29.54 1000 10 16 0.00 0.00
10:53 am 10:53 Sunny 46 7.8 19 -7.2 34 34 WSW 23 37 29.58 1002 10 16 0.00 0.00
11:53 am 11:53 Partly Cloudy 43 6.1 24 -4.4 47 47 W 22 35 29.59 1002 10 16 0.00 0.00
12:53 pm 12:53 Sunny 43 6.1 23 -5 45 45 W 18 30 29.58 1002 10 16 0.00 0.00
1:53 pm 13:53 Mostly Cloudy 44 6.7 21 -6.1 40 40 W 20 31 29.59 1002 10 16 0.00 0.00
2:53 pm 14:53 Cloudy 43 6.1 19 -7.2 38 38 SW 14 22 29.61 1003 10 16 0.00 0.00
3:53 pm 15:53 Cloudy 39 3.9 17 -8.3 41 41 SSW 15 24 29.65 1004 10 16 0.00 0.00
4:53 pm 16:53 Cloudy 36 2.2 19 -7.2 50 50 W 14 22 29.67 1005 10 16 0.00 0.00
5:53 pm 17:53 Clear 34 1.1 18 -7.8 52 52 SW 13 20 29.71 1006 10 16 0.00 0.00
6:53 pm 18:53 Clear 32 0 17 -8.3 54 54 SW 13 20 29.75 1007 10 16 0.00 0.00
7:53 pm 19:53 Clear 30 -1.1 17 -8.3 58 58 SW 9 15 29.76 1008 10 16 0.00 0.00
8:53 pm 20:53 Clear 26 -3.3 16 -8.9 66 66 W 9 15 29.78 1009 10 16 0.00 0.00
9:53 pm 21:53 Clear 26 -3.3 15 -9.4 63 63 SW 14 22 29.77 1008 10 16 0.00 0.00
10:53 pm 22:53 Clear 24 -4.4 13 -10.6 62 62 SW 6 9 29.81 1009 10 16 0.00 0.00
11:53 pm 23:53 Clear 29 -1.7 15 -9.4 56 56 SSW 9 15 29.82 1010 10 16 0.00 0.00

Powered by AerisWeather